Temperature
18 18 19 19 15 13 15 16 17 17 19 20 21 21 20 20 21 21 22 21 21 20 19 17 16 15 15 15 15 14 14 14 14 13 12 12 12 12 12 12 12 12 12 12 12 13 13 13 13
17 18 19 18 14 14 15 16 17 18 20 20 21 21 20 20 21 21 22 21 21 20 20 18 16 16 15 15 15 14 14 14 14 12 12 12 12 12 12 12 12 12 12 13 13 13 13 13 13
17 17 18 13 13 14 17 17 17 18 20 20 20 20 20 20 21 21 22 22 21 20 20 19 17 16 15 15 15 14 14 14 14 12 12 11 12 12 12 12 12 13 13 14 14 14 13 13 13
16 17 16 12 14 14 15 17 17 16 20 20 20 20 20 21 21 21 22 21 21 20 20 19 17 16 15 15 14 14 14 14 14 13 12 12 12 12 12 12 12 13 13 14 14 14 14 14 14
16 16 13 12 13 14 14 16 17 17 18 20 20 20 21 21 21 21 21 21 20 20 19 19 17 16 15 15 14 14 14 14 14 13 12 12 12 12 12 12 12 13 13 14 14 14 14 14 14
15 13 12 12 13 14 14 17 18 18 18 20 20 19 21 21 21 21 20 20 19 19 19 18 17 16 15 15 14 14 14 14 14 14 13 12 12 12 12 12 13 13 13 13 14 14 14 14 14
14 10 11 12 13 13 15 17 18 18 18 20 20 19 21 21 21 21 20 19 19 19 19 18 17 16 15 15 14 14 14 14 14 14 13 13 12 12 12 13 13 13 13 13 13 13 13 13 13
14 10 11 11 12 13 16 18 19 19 19 20 20 19 20 21 21 21 20 19 18 18 18 18 17 17 16 15 15 14 14 14 14 14 14 13 13 13 13 13 13 13 13 13 13 13 13 13 13
13 10 10 11 12 14 16 17 18 19 19 20 20 20 21 21 21 21 20 19 19 18 18 18 18 17 16 15 15 14 14 14 14 14 14 14 13 13 13 13 13 13 13 13 13 13 13 13 12
12 10 11 12 13 14 15 16 17 18 18 19 20 20 21 21 21 21 20 20 20 20 19 18 18 17 17 16 15 14 14 14 14 14 14 14 13 13 12 12 13 13 13 12 12 12 12 12 12
10 10 12 13 14 14 14 15 16 16 16 18 19 20 20 20 20 20 20 20 20 20 19 19 19 18 17 16 16 15 14 14 14 13 13 13 13 13 12 12 12 12 12 12 12 12 12 12 12
10 10 11 12 14 14 14 14 15 15 16 18 18 18 19 19 20 20 20 20 20 20 20 19 19 18 17 17 16 15 15 14 14 13 13 13 13 12 12 12 12 12 12 12 12 12 12 11 11
10 10 11 12 12 13 13 13 13 14 15 16 17 17 18 19 19 20 20 20 20 20 20 20 19 18 18 17 16 15 15 14 14 13 13 13 12 12 12 12 12 12 12 11 11 11 11 11 11
9 9 10 11 11 12 12 12 12 13 15 16 16 17 18 18 19 19 20 20 20 20 20 20 20 19 18 17 16 15 15 14 13 13 13 13 12 12 12 12 12 11 11 11 11 11 11 11 11
9 9 9 10 11 11 12 11 12 14 15 15 16 16 17 18 19 19 20 20 20 20 20 20 20 19 18 17 16 15 14 14 13 13 13 13 13 12 12 12 11 11 11 11 11 11 11 11 11
9 8 8 9 10 11 11 11 12 14 15 15 16 16 17 18 19 19 19 20 20 20 20 20 20 20 19 17 16 15 14 14 14 13 13 13 13 12 12 12 11 11 11 11 11 11 11 11 11
8 7 7 9 10 10 10 10 12 14 14 14 15 16 17 18 18 19 19 19 20 20 20 20 20 19 18 17 16 15 14 14 14 14 13 13 13 12 12 12 12 11 11 11 11 11 11 10 10
7 7 7 8 9 9 9 9 10 12 13 12 13 14 16 16 18 19 19 19 19 19 19 19 19 19 18 16 15 15 14 14 14 13 13 13 12 12 12 12 11 11 11 11 11 10 10 9 9
7 7 7 8 9 8 8 9 10 10 11 11 12 13 14 16 17 18 18 19 19 19 19 19 18 18 17 16 15 15 14 14 13 13 13 12 12 12 11 11 11 11 11 11 10 9 9 8 8
6 6 7 7 8 8 8 8 9 10 10 11 12 13 14 15 16 17 17 18 18 18 18 18 18 17 16 16 15 15 14 14 13 13 12 12 12 11 11 11 11 11 10 10 9 8 8 7 6
6 6 6 6 7 7 7 8 9 10 11 12 12 13 14 15 16 17 17 17 18 17 17 18 17 16 15 15 15 14 14 13 13 12 12 11 11 11 11 11 10 10 10 9 8 7 6 6 5
6 6 6 6 6 6 6 7 8 9 10 10 11 13 14 15 16 16 17 17 17 17 17 17 16 15 15 14 14 14 14 13 12 12 12 11 11 10 10 10 10 9 9 8 7 6 5 5 4
5 7 7 6 6 5 6 6 8 8 9 10 10 12 14 15 16 16 17 17 17 17 16 16 15 14 14 13 13 13 13 13 12 11 11 11 10 10 10 9 9 8 8 7 6 5 5 4 3
7 7 6 6 6 6 6 6 7 8 9 10 10 13 14 15 16 16 17 17 16 16 15 15 14 13 13 12 13 13 13 12 12 11 11 10 10 9 9 8 8 7 7 6 5 4 4 3 3
6 5 6 6 6 6 7 7 8 8 10 11 11 12 15 15 15 15 16 16 15 15 14 14 13 13 12 12 12 12 12 12 12 11 10 10 9 9 8 8 7 6 6 5 4 4 3 3 2
5 5 5 5 5 5 6 7 9 9 10 12 13 14 14 15 15 15 15 16 15 15 14 13 12 12 12 12 12 11 11 11 11 10 10 9 8 8 7 7 6 5 4 4 3 3 3 2 2
5 5 6 6 5 5 6 7 8 9 9 10 11 12 13 14 14 14 14 14 14 14 13 13 12 11 11 11 11 11 10 10 10 9 9 8 8 7 7 6 5 4 4 3 3 2 2 2 1
6 6 5 5 6 6 6 6 8 9 10 10 10 10 12 13 13 12 12 12 13 13 12 11 11 11 11 10 10 10 10 9 9 9 8 7 7 6 6 5 4 3 3 2 2 2 1 1 1
5 5 5 6 6 5 5 8 10 9 10 10 10 11 11 11 11 10 10 10 11 11 11 11 11 11 10 10 10 10 9 9 8 8 7 7 6 6 5 4 3 3 2 2 2 1 1 1 0
6 6 6 6 5 5 6 8 11 10 10 9 9 10 10 10 9 8 8 8 9 10 10 10 10 10 10 10 9 9 9 8 7 7 6 6 5 5 4 3 3 2 2 1 1 1 0 -0 -1
Wind_Speed
15 10 3 4 6 5 3 5 4 6 4 2 2 3 4 4 5 3 0 9 7 10 15 18 19 19 18 16 14 11 10 9 8 8 8 8 8 6 6 5 4 3 3 3 4 5 6 7 7
8 4 6 5 5 0 6 5 5 5 5 6 1 2 0 2 2 1 2 8 8 11 15 16 19 19 18 16 14 12 10 9 9 8 8 8 7 6 6 4 3 3 3 3 4 4 5 5 5
4 5 5 4 5 7 6 5 5 6 7 3 0 1 3 3 2 3 4 10 9 10 13 17 20 19 18 16 14 12 11 10 9 8 8 8 8 7 6 4 4 3 3 3 3 3 3 3 3
4 5 5 3 8 7 6 5 4 8 8 3 1 1 2 2 2 2 7 10 11 9 12 16 20 19 18 17 15 13 11 10 9 8 8 7 7 8 6 5 4 3 3 3 2 2 1 1 1
4 4 1 4 8 6 6 6 3 5 6 4 1 3 2 1 2 6 9 10 12 9 9 14 19 19 19 17 16 14 12 10 9 9 8 6 6 7 7 7 5 4 2 1 0 1 1 2 3
4 4 4 7 10 5 5 4 3 5 5 5 3 3 4 1 5 6 8 9 10 10 9 12 18 18 18 18 16 15 13 11 9 9 9 7 6 6 7 7 6 4 3 2 3 3 4 5 6
5 5 6 7 7 7 6 5 5 5 6 5 5 5 4 3 6 8 7 7 7 8 7 8 13 16 18 18 16 15 13 11 10 9 8 5 3 3 7 7 5 5 5 5 5 6 7 7 8
5 5 5 6 7 7 3 3 4 5 7 4 6 6 5 4 8 8 6 6 5 6 8 7 9 11 13 15 16 15 14 12 10 9 7 5 2 2 4 4 5 6 6 6 7 7 8 8 9
4 3 7 7 7 5 3 2 3 3 3 2 3 5 3 4 9 9 5 4 5 7 8 8 7 8 10 12 14 15 14 12 10 8 8 6 3 0 1 2 5 7 7 7 8 8 8 8 7
4 6 7 6 6 3 3 3 5 5 5 3 4 3 1 5 8 8 8 8 9 11 11 10 10 8 8 10 11 11 11 10 9 7 7 6 4 1 2 4 5 6 6 6 6 6 6 6 7
5 6 3 4 4 4 5 6 4 3 5 5 5 5 1 3 6 8 8 8 11 9 10 11 12 10 9 6 8 8 9 9 8 8 7 5 3 1 1 2 3 3 3 3 4 5 6 7 7
4 5 4 3 3 4 6 6 6 7 10 7 5 5 5 5 8 10 10 9 7 8 10 11 13 12 11 8 6 7 6 6 6 8 8 6 3 2 1 1 2 3 3 3 4 5 7 8 8
5 5 4 5 7 7 8 8 8 10 11 11 9 8 9 9 10 9 9 8 8 10 11 12 12 14 12 10 7 6 6 6 8 8 8 8 4 3 3 3 4 5 6 5 4 5 6 6 7
3 3 5 6 7 5 8 13 9 11 9 10 10 11 11 12 12 10 9 10 10 11 11 11 14 14 13 12 9 8 6 7 7 7 9 10 8 6 4 4 4 6 7 7 6 6 5 4 4
2 4 7 6 7 6 6 16 15 13 11 13 13 12 13 13 12 12 11 10 11 10 8 11 13 14 15 13 11 7 6 7 6 6 9 10 10 9 7 5 5 5 8 8 7 6 6 5 5
2 3 5 5 6 8 8 19 9 8 11 14 13 13 14 15 13 12 11 11 10 8 7 9 11 13 14 11 9 6 6 7 6 8 10 11 12 12 9 6 5 7 8 6 5 5 5 6 6
2 5 5 5 5 5 9 11 5 8 10 13 12 12 13 13 14 12 10 10 9 8 7 7 9 12 12 11 9 8 7 7 7 9 10 12 12 13 11 7 6 9 7 5 5 6 5 5 7
6 6 5 5 4 5 10 15 12 10 10 11 11 11 12 13 15 12 9 8 8 6 6 7 8 11 12 11 11 9 10 8 7 8 10 13 13 14 12 8 8 8 6 6 5 6 6 5 6
2 5 8 6 7 8 14 21 17 12 13 14 13 12 13 13 12 8 7 7 6 6 7 8 11 12 14 12 11 9 8 8 8 8 12 13 14 14 12 7 6 7 7 7 6 4 6 6 6
8 13 13 10 8 9 15 25 20 15 17 18 18 17 15 13 9 7 7 7 7 7 8 9 12 13 12 10 7 6 7 7 8 8 10 13 14 13 12 8 7 6 6 8 8 6 3 5 6
11 11 10 9 7 8 13 20 17 14 18 20 19 19 16 16 14 11 10 9 8 8 10 10 11 11 11 12 13 13 9 7 6 8 7 9 13 14 13 11 8 6 7 6 6 6 5 4 4
11 8 11 10 8 7 5 10 8 8 12 15 15 15 16 16 15 12 11 10 10 9 9 10 11 12 13 14 17 19 12 9 6 7 8 8 12 13 13 12 10 6 6 6 6 5 4 4 3
7 5 8 9 9 11 9 10 12 7 12 12 13 15 16 16 16 15 14 14 11 10 10 11 12 12 12 11 15 15 13 11 10 10 11 10 8 10 12 12 9 6 5 6 6 5 4 3 2
6 3 6 7 7 14 14 11 13 8 11 11 13 14 16 16 16 14 12 11 10 10 11 12 13 12 10 11 12 17 19 18 15 12 10 8 6 6 8 10 8 7 5 5 4 4 4 2 1
8 6 4 6 9 10 8 11 14 10 10 14 16 15 15 14 13 13 15 16 16 15 14 13 15 13 11 12 12 15 18 17 15 13 11 9 6 5 6 6 5 5 5 5 4 3 3 1 1
12 12 9 7 7 6 6 13 12 11 13 14 16 14 12 11 12 15 18 19 19 18 17 16 16 14 13 13 13 13 13 11 10 10 9 8 7 6 5 6 6 6 5 4 3 2 2 1 2
7 12 10 7 7 7 8 9 11 9 11 15 16 14 13 11 13 15 17 19 19 19 17 17 17 15 14 14 14 13 12 12 12 10 9 8 7 6 6 6 5 4 4 3 2 2 3 3 3
9 5 6 9 7 10 9 10 10 9 11 13 14 14 13 11 12 14 16 16 16 16 15 15 17 17 15 14 13 12 12 12 12 11 10 8 7 7 7 6 5 4 3 3 2 2 3 4 4
14 10 10 7 6 6 7 9 5 5 8 11 12 11 11 13 15 16 16 15 15 16 16 16 16 17 15 14 14 14 12 12 11 10 9 8 7 7 6 5 4 3 3 3 3 4 4 5 6
14 15 14 9 8 6 7 12 4 3 9 11 9 5 7 11 13 15 16 17 17 17 16 16 15 16 14 14 15 14 12 12 11 10 8 8 7 6 5 4 4 3 3 3 4 5 6 6 7
Wind_Direction
333 338 39 51 49 46 263 254 253 291 281 286 262 201 190 188 181 197 159 158 150 152 167 169 162 160 158 157 153 151 150 149 150 149 146 146 140 135 128 124 107 87 69 56 50 50 60 67 80
332 355 45 56 90 282 267 250 253 256 283 309 290 138 200 265 265 172 164 170 158 157 164 165 164 163 161 160 158 158 158 158 158 156 152 149 147 145 141 127 102 76 69 67 63 57 55 56 61
4 45 73 80 150 191 227 226 230 285 292 282 196 150 196 233 237 206 191 158 148 157 161 164 166 166 165 164 164 165 166 167 168 167 164 160 164 161 155 141 114 95 93 93 86 74 65 49 34
58 46 60 110 224 220 223 240 283 319 325 320 228 182 244 247 257 200 141 146 148 156 160 167 169 170 169 168 170 172 173 175 176 177 177 179 182 181 172 157 144 138 132 122 110 96 77 19 328
60 82 112 239 241 238 243 263 281 302 298 303 259 198 258 349 60 118 138 148 156 160 164 171 174 175 172 173 175 177 178 180 182 184 186 191 196 197 190 171 171 176 179 176 183 308 311 303 300
65 88 163 231 246 250 248 243 277 273 268 278 204 186 262 23 119 150 152 156 164 167 167 176 181 179 177 178 180 181 182 183 186 191 196 206 221 218 189 180 189 208 229 261 294 309 311 309 307
126 137 202 222 249 257 245 210 216 239 257 252 191 173 274 284 150 155 156 149 162 169 168 178 186 184 181 181 183 183 183 184 188 194 199 199 213 211 181 184 206 234 258 284 303 311 312 311 311
140 142 209 219 229 257 244 214 229 219 245 243 165 173 232 241 131 128 135 142 164 178 182 181 186 183 181 182 184 183 182 185 189 191 183 168 171 178 178 199 233 257 276 293 304 309 314 318 319
109 147 218 211 201 245 255 242 294 291 261 281 222 215 247 124 118 115 121 153 183 196 196 189 187 182 177 177 183 182 183 186 188 186 176 169 174 186 255 273 276 278 286 299 310 320 331 339 339
149 208 224 194 195 227 314 311 312 340 336 312 298 286 38 136 148 156 171 188 198 203 201 197 196 189 177 181 178 177 178 183 182 177 175 174 182 215 289 307 304 298 306 320 329 343 1 10 4
186 224 234 235 249 276 293 289 283 283 275 243 255 286 283 180 186 194 201 204 208 204 200 199 200 194 186 179 169 171 172 175 180 182 181 175 170 191 314 341 352 11 16 13 10 23 28 31 25
219 246 254 279 316 295 278 279 275 232 238 259 270 290 293 235 216 217 220 223 213 203 204 199 198 197 194 183 174 172 171 174 180 187 183 167 155 148 115 72 46 49 52 50 46 47 44 41 35
240 263 274 286 296 278 275 262 262 254 254 273 284 282 266 257 246 242 241 242 223 217 212 200 194 196 193 186 179 178 180 182 185 183 184 175 157 146 124 98 80 68 67 63 54 51 47 38 30
265 295 299 288 284 280 267 269 253 253 248 262 265 264 258 249 245 248 248 247 235 227 220 200 195 193 188 188 184 181 180 177 174 178 179 171 156 141 125 100 79 66 66 65 62 57 47 33 18
294 300 297 256 242 244 261 270 242 246 243 251 252 251 255 251 242 235 235 237 236 232 219 201 196 187 185 185 181 172 168 163 160 157 155 148 139 129 115 100 81 67 71 70 61 55 46 30 14
296 265 272 272 227 219 208 260 259 229 228 242 243 241 245 251 244 237 237 240 239 225 210 201 191 183 181 176 164 152 147 142 135 131 127 123 121 119 108 99 86 76 71 65 61 39 37 22 7
247 247 245 280 257 256 224 262 277 239 234 246 246 244 243 248 254 251 242 236 228 208 193 183 176 172 167 151 137 126 120 115 113 112 111 110 110 109 104 96 88 81 69 51 56 47 39 21 357
226 229 239 245 301 318 279 273 283 294 283 267 259 254 249 246 250 254 245 225 205 186 171 159 150 148 141 130 120 112 103 99 96 99 103 106 105 104 100 91 83 78 69 52 48 54 42 28 350
240 257 267 268 303 307 278 279 277 270 269 269 264 257 252 249 253 248 224 192 171 167 157 148 144 145 144 141 136 129 118 109 99 96 100 102 103 101 98 95 81 73 73 61 46 49 37 20 1
249 264 271 279 267 274 280 280 275 256 255 254 254 254 252 249 247 226 201 182 179 174 162 150 151 152 151 146 132 121 118 106 98 97 94 98 101 99 96 92 87 78 78 62 48 47 47 22 25
238 245 254 264 301 276 285 285 262 240 236 242 243 240 241 239 240 225 200 195 183 180 170 159 153 147 138 131 122 117 108 105 103 101 94 90 95 94 95 91 87 78 77 73 60 53 63 31 14
251 227 234 250 261 270 239 285 264 232 246 245 243 236 234 232 228 217 195 190 188 181 163 150 146 142 142 142 142 143 142 135 128 124 112 96 91 92 92 89 85 80 76 72 62 62 63 65 29
228 222 227 235 244 261 239 263 276 203 249 251 245 239 234 227 219 208 195 190 177 161 153 145 140 140 144 145 146 137 127 122 125 118 109 98 86 85 87 86 83 78 75 73 65 60 58 71 78
211 263 270 245 247 259 231 226 273 210 231 241 241 236 233 226 216 203 183 162 153 148 145 144 142 139 138 137 138 137 134 135 133 126 116 106 95 82 80 83 81 79 75 70 64 61 56 59 56
188 212 248 233 226 248 182 211 254 228 214 225 240 240 235 225 206 184 167 163 161 158 154 149 145 138 135 133 131 135 136 136 135 131 125 119 106 92 83 84 80 75 73 72 62 51 29 15 339
195 196 212 227 234 267 213 231 252 240 230 233 238 239 235 217 194 181 174 170 166 162 156 152 146 139 134 130 126 124 124 123 122 119 120 114 110 108 103 93 83 76 68 61 48 29 341 330 303
197 212 219 248 259 267 252 263 284 256 250 246 245 240 231 210 188 180 173 169 164 160 157 152 144 137 132 129 124 120 117 118 118 112 106 106 108 108 98 90 83 68 56 40 18 344 321 314 290
214 191 192 218 240 249 258 255 256 281 281 273 258 244 228 199 179 171 168 164 158 151 142 140 139 135 130 127 126 122 116 115 116 113 108 105 102 99 97 87 77 60 39 11 351 322 314 315 299
205 215 217 224 222 229 265 262 222 254 297 295 276 251 214 184 173 166 158 149 139 136 136 136 133 130 127 123 120 118 115 113 110 109 108 108 103 100 95 89 75 52 23 352 341 323 313 310 301
213 218 213 224 230 226 254 266 225 284 329 326 310 269 184 163 153 147 142 139 138 137 136 134 132 129 126 123 120 117 115 113 109 108 108 107 102 96 94 86 69 36 3 340 331 317 314 302 298
Height
1505 1505 1505 1505 1508 1520 1519 1510 1503 1501 1496 1495 1493 1492 1492 1493 1495 1498 1493 1493 1494 1495 1496 1498 1501 1503 1505 1506 1508 1509 1509 1509 1509 1509 1510 1511 1513 1513 1514 1514 1514 1514 1514 1514 1515 1516 1518 1518 1519
1504 1505 1506 1505 1516 1525 1520 1507 1503 1498 1495 1493 1492 1491 1491 1490 1490 1491 1491 1492 1494 1495 1496 1498 1501 1503 1505 1507 1508 1509 1509 1509 1509 1510 1511 1512 1513 1514 1514 1515 1514 1514 1514 1514 1514 1515 1516 1517 1518
1503 1504 1506 1508 1517 1520 1511 1501 1498 1495 1493 1492 1491 1490 1490 1490 1490 1491 1491 1492 1493 1494 1496 1498 1500 1503 1505 1507 1508 1509 1510 1510 1510 1510 1511 1513 1514 1515 1515 1515 1515 1515 1514 1514 1514 1515 1516 1517 1517
1503 1504 1505 1512 1513 1508 1503 1497 1496 1495 1492 1492 1491 1490 1490 1491 1490 1491 1492 1493 1493 1494 1496 1498 1500 1503 1505 1506 1508 1509 1510 1510 1510 1511 1512 1513 1515 1515 1516 1516 1516 1516 1515 1515 1515 1516 1516 1517 1517
1502 1503 1508 1513 1509 1503 1499 1496 1495 1495 1494 1492 1491 1490 1489 1490 1490 1490 1492 1493 1494 1495 1496 1498 1500 1502 1504 1506 1508 1509 1510 1510 1511 1511 1512 1514 1515 1516 1517 1517 1517 1516 1516 1516 1516 1516 1517 1517 1517
1501 1502 1513 1514 1505 1500 1496 1495 1495 1494 1493 1492 1491 1489 1488 1489 1489 1490 1492 1493 1494 1495 1496 1498 1500 1502 1504 1506 1508 1509 1510 1511 1511 1512 1512 1514 1515 1516 1517 1518 1517 1517 1517 1517 1517 1517 1517 1517 1517
1499 1504 1508 1507 1503 1499 1494 1493 1493 1492 1491 1491 1490 1489 1488 1489 1489 1490 1491 1493 1494 1495 1497 1498 1500 1502 1504 1506 1508 1509 1510 1511 1511 1512 1512 1514 1515 1516 1517 1518 1518 1518 1518 1518 1517 1517 1517 1517 1517
1496 1501 1503 1503 1501 1497 1492 1491 1490 1490 1489 1489 1489 1488 1487 1488 1488 1489 1490 1492 1493 1495 1496 1498 1499 1501 1503 1505 1507 1509 1510 1511 1511 1512 1512 1513 1515 1516 1517 1518 1518 1518 1518 1518 1518 1517 1517 1517 1516
1494 1502 1501 1499 1498 1494 1490 1489 1489 1488 1488 1487 1487 1487 1487 1487 1488 1488 1489 1490 1492 1493 1495 1496 1498 1500 1502 1504 1506 1508 1509 1510 1511 1511 1512 1513 1514 1516 1517 1517 1518 1518 1517 1517 1517 1517 1516 1516 1516
1493 1496 1492 1490 1490 1490 1489 1489 1489 1488 1487 1487 1487 1486 1486 1486 1487 1487 1488 1489 1490 1491 1493 1495 1497 1498 1500 1502 1504 1506 1508 1509 1510 1511 1512 1513 1514 1515 1516 1517 1517 1517 1517 1517 1517 1516 1516 1515 1515
1490 1491 1488 1487 1487 1488 1488 1488 1488 1488 1487 1486 1486 1486 1485 1485 1485 1486 1487 1488 1489 1490 1492 1493 1495 1496 1498 1500 1502 1504 1506 1507 1509 1510 1511 1512 1514 1515 1516 1516 1517 1516 1516 1516 1516 1515 1514 1514 1513
1489 1487 1486 1486 1486 1486 1486 1485 1485 1484 1484 1484 1485 1485 1485 1484 1484 1485 1485 1486 1487 1488 1489 1491 1493 1494 1496 1498 1500 1502 1504 1506 1507 1509 1511 1512 1513 1514 1515 1516 1516 1516 1515 1515 1515 1514 1513 1512 1510
1487 1486 1485 1484 1484 1484 1483 1482 1482 1478 1480 1481 1481 1482 1482 1482 1483 1483 1484 1484 1485 1485 1487 1488 1490 1491 1493 1495 1498 1500 1502 1504 1506 1508 1509 1511 1512 1513 1514 1514 1515 1514 1514 1514 1513 1512 1511 1509 1508
1485 1485 1484 1483 1482 1481 1480 1476 1477 1471 1475 1475 1476 1477 1478 1478 1479 1480 1480 1481 1481 1482 1483 1484 1486 1488 1490 1492 1495 1498 1500 1503 1505 1506 1508 1510 1511 1512 1513 1513 1513 1513 1512 1512 1511 1509 1508 1507 1505
1484 1484 1482 1480 1479 1477 1478 1470 1466 1467 1470 1469 1469 1471 1472 1472 1473 1474 1475 1476 1477 1478 1479 1480 1481 1483 1486 1489 1492 1495 1498 1500 1503 1505 1506 1508 1510 1511 1511 1511 1511 1511 1510 1509 1508 1507 1505 1503 1502
1483 1484 1484 1478 1474 1473 1478 1464 1461 1462 1462 1461 1461 1463 1464 1465 1467 1468 1470 1471 1472 1472 1473 1475 1476 1478 1481 1484 1488 1492 1495 1498 1500 1502 1504 1506 1507 1508 1509 1509 1509 1509 1508 1507 1506 1504 1502 1500 1498
1485 1485 1483 1479 1472 1471 1471 1462 1457 1455 1456 1455 1455 1456 1457 1457 1459 1462 1464 1465 1466 1466 1467 1469 1471 1473 1476 1480 1484 1488 1491 1494 1497 1499 1501 1503 1505 1506 1507 1507 1507 1507 1506 1505 1503 1501 1498 1496 1494
1485 1485 1482 1479 1473 1472 1469 1461 1457 1454 1453 1451 1450 1449 1449 1450 1452 1456 1458 1459 1459 1460 1462 1464 1466 1468 1471 1474 1479 1483 1487 1490 1493 1496 1498 1500 1502 1504 1505 1505 1505 1505 1504 1502 1500 1498 1495 1492 1490
1481 1482 1480 1477 1473 1474 1466 1457 1452 1450 1449 1446 1444 1443 1443 1443 1446 1449 1451 1452 1453 1455 1457 1459 1461 1463 1466 1469 1473 1478 1482 1486 1490 1493 1496 1498 1500 1501 1503 1503 1503 1503 1501 1499 1497 1495 1492 1489 1487
1481 1481 1479 1477 1474 1471 1463 1450 1444 1442 1440 1438 1437 1436 1436 1437 1440 1442 1445 1446 1448 1450 1452 1455 1457 1459 1461 1465 1469 1474 1479 1483 1487 1490 1493 1496 1498 1500 1501 1501 1501 1500 1498 1496 1494 1492 1490 1487 1484
1478 1480 1478 1478 1474 1469 1465 1442 1431 1427 1426 1425 1425 1426 1427 1430 1432 1435 1438 1441 1444 1446 1448 1450 1453 1455 1458 1462 1466 1471 1476 1480 1484 1488 1491 1494 1496 1498 1499 1499 1498 1497 1496 1494 1491 1489 1488 1486 1484
1474 1472 1473 1474 1476 1471 1465 1449 1424 1421 1418 1416 1416 1416 1417 1420 1424 1427 1431 1435 1438 1441 1444 1447 1449 1452 1455 1459 1463 1467 1472 1477 1481 1485 1488 1491 1494 1495 1496 1496 1496 1495 1493 1491 1489 1487 1486 1484 1483
1470 1469 1470 1470 1471 1468 1461 1458 1421 1419 1414 1410 1409 1408 1408 1410 1413 1417 1422 1428 1432 1436 1439 1442 1445 1449 1453 1457 1462 1467 1471 1475 1479 1483 1486 1489 1492 1493 1494 1494 1493 1492 1491 1489 1488 1486 1484 1482 1480
1466 1468 1468 1466 1467 1457 1447 1455 1421 1414 1406 1403 1401 1399 1398 1400 1403 1408 1414 1420 1425 1430 1435 1439 1442 1446 1450 1456 1461 1465 1469 1473 1476 1480 1484 1488 1490 1491 1492 1492 1491 1490 1488 1487 1486 1484 1482 1480 1478
1465 1469 1468 1463 1455 1445 1437 1437 1411 1400 1396 1393 1392 1390 1389 1391 1395 1399 1404 1411 1417 1424 1430 1434 1439 1443 1449 1454 1460 1464 1469 1472 1476 1480 1483 1486 1488 1489 1490 1489 1488 1487 1486 1485 1483 1482 1480 1478 1475
1457 1460 1462 1462 1455 1444 1434 1422 1399 1390 1387 1384 1382 1382 1383 1385 1387 1391 1396 1403 1410 1418 1424 1430 1436 1441 1447 1453 1458 1463 1468 1472 1476 1479 1482 1485 1486 1487 1487 1487 1486 1485 1484 1482 1481 1479 1477 1474 1472
1452 1451 1449 1452 1445 1442 1428 1412 1396 1384 1383 1379 1376 1375 1375 1378 1381 1385 1391 1397 1405 1412 1419 1426 1432 1439 1445 1451 1457 1462 1467 1471 1475 1478 1481 1483 1484 1485 1485 1485 1483 1482 1481 1480 1478 1476 1474 1471 1468
1443 1443 1446 1444 1437 1431 1419 1410 1393 1383 1380 1375 1372 1369 1368 1372 1376 1381 1386 1393 1400 1408 1416 1425 1432 1438 1444 1450 1456 1461 1466 1470 1474 1477 1479 1481 1482 1483 1482 1482 1481 1480 1478 1477 1475 1472 1470 1467 1464
1438 1438 1435 1433 1430 1429 1420 1398 1378 1378 1375 1370 1365 1362 1362 1365 1370 1376 1382 1390 1397 1405 1414 1423 1430 1436 1443 1449 1455 1461 1465 1469 1473 1476 1478 1479 1480 1480 1480 1479 1478 1477 1475 1473 1471 1468 1465 1462 1459
1424 1424 1426 1425 1422 1420 1414 1390 1371 1372 1369 1365 1360 1358 1358 1362 1368 1374 1381 1387 1396 1404 1413 1421 1429 1435 1442 1449 1455 1460 1464 1468 1471 1474 1476 1477 1477 1477 1477 1476 1475 1474 1472 1470 1467 1464 1460 1457 1453